PROITERES
1 38756U 12047B   15211.72548616  .00000293  00000-0  50422-4 0  9993
2 38756 098.2223 311.7551 0012805 153.2271 206.9618 14.75874210155425
BEESAT-3
1 39134U 13015E   15211.65825011  .00003348  00000-0  19949-3 0  9991
2 39134 064.8725 278.3821 0029359 246.3240 113.4802 15.12650686125270
BEESAT-2
1 39136U 13015G   15211.62934331  .00002738  00000-0  17299-3 0  9994
2 39136 064.8732 281.2364 0029512 245.3278 114.4771 15.10942642125221
ZACUBE-1
1 39417U 13066B   15211.74462883  .00000622  00000-0  86973-4 0  9999
2 39417 097.7272 272.6213 0060122 356.1875 003.8871 14.79818064 91071
TRITON-1
1 39427U 13066M   15211.12143745  .00000503  00000-0  89851-4 0  9991
2 39427 097.7118 259.3390 0116327 030.7775 330.0183 14.66730908 90157
DELFIN3XT
1 39428U 13066N   15211.09417068  .00000940  00000-0  16277-3 0  9996
2 39428 097.7124 257.5445 0124861 035.9910 324.9622 14.65525297 90024
GOMX-1
1 39430U 13066Q   15211.85583251  .00000572  00000-0  11414-3 0  9990
2 39430 097.7033 251.8090 0154682 052.6311 308.8858 14.58141211 89745
MO-76
1 39436U 13066W   15210.80583143  .00010147  00000-0  65579-3 0  9990
2 39436 097.7445 287.2549 0019619 320.5811 039.3988 15.08262932 91914
LO-74
1 39440U 13066AA  15211.15564683  .00000541  00000-0  84244-4 0  9990
2 39440 097.7213 267.0258 0082086 010.1040 350.1796 14.74628189 90663
PUCPSAT-1
1 39442U 13066AC  15211.17071866  .00000880  00000-0  99173-4 0  9993
2 39442 097.7371 280.2046 0032398 343.7735 016.2442 14.88746961 90267
SPROUT
1 39770U 14029E   15211.06934320  .00000769  00000-0  98810-4 0  9991
2 39770 097.8730 307.3055 0010887 067.2207 293.0125 14.83938098 63995
POPSAT-HIP1
1 40028U 14033U   15211.78914759  .00000859  00000-0  10170-3 0  9999
2 40028 097.9500 112.1956 0015589 042.6824 317.5600 14.87130629 60262
EO-80
1 40032U 14033Y   15211.72687654  .00000888  00000-0  10572-3 0  9997
2 40032 097.9474 111.7680 0013319 040.4941 319.7263 14.86813347 60253
VELOX-1
1 40057U 14034E   15211.72670085  .00000739  00000-0  11510-3 0  9993
2 40057 098.2145 290.5411 0012916 099.0605 261.2080 14.75950995 58306
DAURIA DX 1
1 40071U 14037C   15211.78989519  .00000349  00000-0  53120-4 0  9994
2 40071 098.3540 284.9959 0010019 099.7866 260.4469 14.80451760 57240
UKUBE-1
1 40074U 14037F   15211.77228404  .00000741  00000-0  10001-3 0  9991
2 40074 098.3561 285.8985 0006157 104.3781 255.8120 14.82312412 57291
HODOYOSHI-1
1 40299U 14070B   15211.74780215  .00001823  00000-0  88715-4 0  9997
2 40299 097.4545 292.7225 0012467 348.9595 126.9816 15.19598454 40437
CHUBUSAT-1
1 40300U 14070C   15211.74715794  .00001985  00000-0  10069-3 0  9995
2 40300 097.4518 291.8832 0021630 347.2603 127.8164 15.17916833 40381
QSAT-EOS
1 40301U 14070D   15211.73607446  .00003448  00000-0  17315-3 0  9996
2 40301 097.4475 291.1761 0031179 346.4795 128.9293 15.17540935 40347
TSUBAME
1 40302U 14070E   15211.78579992  .00001552  00000-0  89161-4 0  9999
2 40302 097.4455 289.8227 0042505 349.8402 123.8517 15.13249647 40260
FIREBIRD FU3
1 40377U 15003B   15211.77669883  .00006135  00000-0  30250-3 0  9992
2 40377 099.1156 253.3219 0157834 110.7249 251.0970 15.08086843 27120
FIREBIRD FU4
1 40378U 15003C   15211.77412418  .00005964  00000-0  29385-3 0  9999
2 40378 099.1156 253.3264 0158075 110.6867 251.1383 15.08098185 27125
GRIFEX
1 40379U 15003D   15211.76618911  .00004749  00000-0  23979-3 0  9998
2 40379 099.1165 253.1841 0159383 112.1476 249.6750 15.07292162 27110
LAMBDA-SAT
1 40458U 98067GB  15136.30676273  .20783109  12527-4  14817-2 0  9995
2 40458 051.6075 233.7697 0010355 318.5347 043.1720 16.39926603 21161
NO-84
1 40654U          15210.48129069  .00009177  00000-0  23950-3 0 00792
2 40654 054.9942 036.9724 0243516 354.5088 005.3270 15.14773963010586
NO-83
1 40655U          15210.52865741  .00013038  00000-0  33179-3 0 00865
2 40655 054.9917 036.5784 0240631 354.7296 005.1263 15.15509731010591
DEORBITSAIL
1 40719U 15032E   15211.06547155  .00000265  00000-0  47404-4 0  9991
2 40719 098.0517 100.0756 0016205 188.6197 171.4761 14.74598393  2851
